Вернуться в каталог

STARLINK-37369

АктивенСвязьVLEO
NORAD 69529·PAYLOAD·🇺🇸 United States

Запущен Jun 12, 2026 с Cape Canaveral Space Force Station

Loading…

Ближайшие Пролёты (ближайшие 24 часа)

TLE

СвежийSource: CelesTrak SupGP

Эпоха: Sep 15, 2026, 03:45 UTC

1 69529C 26133X   26258.15673611 -.00040022  00000+0 -11823-2 0  2583
2 69529  53.1573 254.3972 0001321  86.7537  61.8086 15.34415315    14

Отслеживайте STARLINK-37369 в реальном времени с AllMySat

Download on the App Store